CYGNUS NG-15

Last updated on Fri Jul 02 2021 00:02:12 GMT+0000 (Coordinated Universal Time)

1 47689U 21013A 21182.30261544 -.00000252 00000-0 36568-5 0 9993 2 47689 51.6435 273.1802 0008822 271.4772 88.5185 15.24032297 20241

Satellite not in orbit

CYGNUS NG-15